FW7055 Weather Reports


Display with metric or nautical units.
time (UTC)temp
F
wind
direction
speed
MPH
gust
MPH
rain 1hr
in
rain 24hr
in
rain mn
in
humidity
%
barometer
mb
20260507085331 50 164 0.0 1.0 0.00 0.00 0.00 94 1022.0
20260507084828 50 185 5.0 6.0 0.00 0.00 0.00 94 1022.0
20260507084325 50 179 1.0 2.0 0.00 0.00 0.00 94 1021.9
20260507083822 50 179 3.0 3.0 0.00 0.00 0.00 94 1021.8
20260507083318 51 179 1.0 1.0 0.00 0.00 0.00 94 1021.9
20260507082815 51 186 2.0 2.0 0.00 0.00 0.00 95 1022.0
20260507082310 51 184 2.0 2.0 0.00 0.00 0.00 95 1021.8
20260507081808 51 175 1.0 1.0 0.00 0.00 0.00 95 1021.9
20260507081303 51 188 3.0 3.0 0.00 0.00 0.00 96 1021.8
20260507080801 51 217 3.0 3.0 0.00 0.00 0.00 96 1021.9
20260507080257 51 196 3.0 3.0 0.00 0.00 0.00 96 1022.0
20260507075752 51 177 2.0 2.0 0.00 0.00 0.00 96 1022.0
20260507075248 51 161 0.0 0.0 0.00 0.00 0.00 96 1021.8
20260507074745 51 154 1.0 2.0 0.00 0.00 0.00 97 1021.8
20260507074243 51 167 1.0 1.0 0.00 0.00 0.00 97 1022.0
20260507073740 51 189 1.0 2.0 0.00 0.00 0.00 97 1022.0
20260507073236 51 158 2.0 2.0 0.00 0.00 0.00 97 1021.8
20260507072734 51 177 1.0 1.0 0.00 0.00 0.00 96 1022.0
20260507072231 51 184 3.0 3.0 0.00 0.00 0.00 96 1021.7
20260507071728 51 157 1.0 2.0 0.00 0.00 0.00 96 1021.6
20260507071225 51 173 2.0 2.0 0.00 0.00 0.00 96 1021.7
20260507070722 51 173 1.0 1.0 0.00 0.00 0.00 96 1021.6
20260507070219 51 182 1.0 1.0 0.00 0.00 0.00 96 1021.8
20260507065715 51 196 3.0 5.0 0.00 0.00 0.00 96 1021.8
20260507065212 51 237 2.0 2.0 0.00 0.00 0.00 96 1021.8
20260507064709 51 190 2.0 2.0 0.00 0.00 0.00 96 1021.8
20260507064209 51 204 2.0 2.0 0.00 0.00 0.00 96 1021.6
20260507063705 51 164 1.0 1.0 0.00 0.00 0.00 95 1021.8
20260507063201 51 214 2.0 2.0 0.00 0.00 0.00 95 1021.7
20260507062658 52 172 1.0 1.0 0.00 0.00 0.00 95 1021.9
20260507062156 52 234 4.0 5.0 0.00 0.00 0.00 95 1021.7
20260507061654 52 188 2.0 2.0 0.00 0.00 0.00 95 1021.8
20260507061152 52 229 1.0 2.0 0.00 0.00 0.00 95 1021.8
20260507060649 52 236 4.0 5.0 0.00 0.00 0.00 95 1021.8
20260507060146 52 210 2.0 2.0 0.00 0.00 0.00 94 1021.8
20260507055641 52 189 2.0 2.0 0.00 0.00 0.00 94 1021.5
20260507055138 52 232 3.0 3.0 0.00 0.00 0.00 93 1021.7
20260507054634 52 265 4.0 5.0 0.00 0.00 0.00 93 1022.0
20260507054131 52 175 1.0 1.0 0.00 0.00 0.00 93 1021.8
20260507053629 52 243 3.0 6.0 0.00 0.00 0.00 93 1021.9
20260507053127 53 270 3.0 5.0 0.00 0.00 0.00 92 1021.9
20260507052625 53 186 1.0 2.0 0.00 0.00 0.00 91 1021.8
20260507052120 53 276 6.0 7.0 0.00 0.00 0.00 91 1021.9
20260507051618 53 185 1.0 2.0 0.00 0.00 0.00 90 1021.9
20260507051115 53 266 4.0 5.0 0.00 0.00 0.00 89 1021.9
20260507050612 53 261 3.0 3.0 0.00 0.00 0.00 89 1021.8
20260507050108 54 236 3.0 3.0 0.00 0.00 0.00 88 1021.7
20260507045605 54 223 2.0 2.0 0.00 0.00 0.00 88 1021.7
20260507045102 54 277 4.0 5.0 0.00 0.00 0.00 88 1022.0
20260507044559 54 234 2.0 2.0 0.00 0.00 0.00 87 1021.8
20260507044056 54 241 3.0 3.0 0.00 0.00 0.00 87 1021.7
20260507043551 54 175 1.0 2.0 0.00 0.00 0.00 87 1021.8
20260507043049 54 180 1.0 1.0 0.00 0.00 0.00 87 1021.8
20260507042544 54 217 2.0 2.0 0.00 0.00 0.00 87 1021.8
20260507042040 54 221 3.0 3.0 0.00 0.00 0.00 87 1021.8
20260507041537 54 181 1.0 1.0 0.00 0.00 0.00 87 1021.6
20260507041034 54 180 1.0 2.0 0.00 0.00 0.00 86 1022.0
20260507040531 54 232 4.0 6.0 0.00 0.00 0.00 87 1021.8
20260507040027 54 246 3.0 5.0 0.00 0.00 0.00 86 1021.7
20260507035523 54 223 5.0 5.0 0.00 0.00 0.00 86 1021.5
20260507035020 54 190 1.0 1.0 0.00 0.00 0.00 86 1021.7
20260507034517 54 249 4.0 5.0 0.00 0.00 0.00 86 1021.5
20260507034015 55 207 3.0 5.0 0.00 0.00 0.00 86 1021.6
20260507033512 55 245 3.0 5.0 0.00 0.00 0.00 85 1021.5
20260507033009 55 180 1.0 2.0 0.00 0.00 0.00 86 1021.5
20260507032506 55 189 2.0 2.0 0.00 0.00 0.00 85 1021.6
20260507032002 55 238 2.0 2.0 0.00 0.00 0.00 85 1021.3
20260507031458 55 279 3.0 3.0 0.00 0.00 0.00 85 1021.3
20260507030955 55 211 3.0 3.0 0.00 0.00 0.00 85 1021.1
20260507030452 55 228 4.0 6.0 0.00 0.00 0.00 84 1021.1
20260507025950 55 184 1.0 2.0 0.00 0.00 0.00 84 1021.1
20260507025447 55 187 2.0 3.0 0.00 0.00 0.00 84 1021.0
20260507024945 55 271 6.0 8.0 0.00 0.00 0.00 83 1020.9
20260507024442 55 240 5.0 7.0 0.00 0.00 0.00 83 1021.0
20260507023937 55 249 3.0 5.0 0.00 0.00 0.00 84 1021.1
20260507023435 55 210 3.0 3.0 0.00 0.00 0.00 84 1021.2
20260507022932 56 185 2.0 3.0 0.00 0.00 0.00 84 1021.2
20260507022429 56 242 2.0 2.0 0.00 0.00 0.00 83 1021.0
20260507021924 56 248 4.0 6.0 0.00 0.00 0.00 83 1020.9
20260507021420 56 267 4.0 5.0 0.00 0.00 0.00 83 1020.9
20260507020918 56 243 5.0 7.0 0.00 0.00 0.00 82 1020.9
20260507020414 56 162 2.0 3.0 0.00 0.00 0.00 82 1021.2
20260507015911 56 275 4.0 7.0 0.00 0.00 0.00 82 1020.9
20260507015409 56 250 5.0 8.0 0.00 0.00 0.00 82 1021.0
20260507014906 56 233 3.0 5.0 0.00 0.00 0.00 83 1021.1
20260507014402 56 207 4.0 5.0 0.00 0.00 0.00 83 1021.1
20260507013859 57 237 3.0 3.0 0.00 0.00 0.00 82 1021.0
20260507013356 57 250 3.0 3.0 0.00 0.00 0.00 82 1021.0
20260507012853 57 260 5.0 6.0 0.00 0.00 0.00 81 1021.0
20260507012349 57 227 5.0 6.0 0.00 0.00 0.00 82 1020.9
20260507011847 57 221 4.0 5.0 0.00 0.00 0.00 82 1021.0
20260507011344 57 208 4.0 6.0 0.00 0.00 0.00 82 1021.0
20260507010843 57 240 3.0 5.0 0.00 0.00 0.00 82 1020.9
20260507010339 57 220 5.0 6.0 0.00 0.00 0.00 82 1021.0
20260507005837 57 245 3.0 3.0 0.00 0.00 0.00 82 1021.1
20260507005333 57 180 3.0 3.0 0.00 0.00 0.00 82 1021.1
20260507004830 57 251 5.0 6.0 0.00 0.00 0.00 82 1021.3
20260507004327 57 243 3.0 5.0 0.00 0.00 0.00 82 1021.0
20260507003824 57 231 4.0 5.0 0.00 0.00 0.00 81 1021.1
20260507003320 57 268 6.0 6.0 0.00 0.00 0.00 81 1021.0
20260507002815 57 247 6.0 7.0 0.00 0.00 0.00 80 1021.3
20260507002311 58 227 6.0 7.0 0.00 0.00 0.00 80 1021.0
20260507001809 58 237 3.0 3.0 0.00 0.00 0.00 80 1021.1
20260507001306 57 196 2.0 2.0 0.00 0.00 0.00 81 1021.2
20260507000802 57 194 2.0 3.0 0.00 0.00 0.00 81 1021.0
20260507000259 57 275 7.0 9.0 0.00 0.00 0.00 80 1021.1
20260506235754 57 244 8.0 9.0 0.00 0.00 0.00 80 1021.3
20260506235250 58 267 4.0 6.0 0.00 0.00 0.00 79 1021.0
20260506234748 57 193 1.0 2.0 0.00 0.00 0.00 80 1021.2
20260506234245 58 191 4.0 7.0 0.00 0.00 0.00 79 1021.3
20260506233742 57 277 4.0 6.0 0.00 0.00 0.00 79 1021.0
20260506233238 58 249 5.0 6.0 0.00 0.00 0.00 78 1020.9
20260506232735 58 241 6.0 8.0 0.00 0.00 0.00 77 1021.1
20260506232230 58 187 4.0 5.0 0.00 0.00 0.00 78 1020.9
20260506231728 58 260 4.0 7.0 0.00 0.00 0.00 77 1021.1
20260506231226 58 219 7.0 9.0 0.00 0.00 0.00 78 1020.9
20260506230722 58 207 6.0 9.0 0.00 0.00 0.00 79 1021.0
20260506230219 59 188 10.0 11.0 0.00 0.00 0.00 77 1021.1
20260506225715 58 219 4.0 5.0 0.00 0.00 0.00 80 1021.1
20260506225213 59 239 6.0 8.0 0.00 0.00 0.00 78 1021.3
20260506224709 58 215 5.0 7.0 0.00 0.00 0.00 79 1021.0
20260506224206 57 213 7.0 9.0 0.00 0.00 0.00 79 1021.2
20260506223702 57 208 3.0 3.0 0.00 0.00 0.00 81 1021.4
20260506223158 57 261 3.0 5.0 0.00 0.00 0.00 80 1021.3
20260506222655 57 253 4.0 6.0 0.00 0.00 0.00 80 1021.2
20260506222151 57 286 5.0 6.0 0.00 0.00 0.00 80 1021.2
20260506221649 57 264 3.0 5.0 0.00 0.00 0.00 81 1021.4
20260506221147 57 272 4.0 5.0 0.00 0.00 0.00 81 1021.3
20260506220643 57 241 4.0 5.0 0.00 0.00 0.00 81 1021.5
20260506220138 56 212 3.0 5.0 0.00 0.00 0.00 81 1021.3
20260506215635 56 266 5.0 6.0 0.00 0.00 0.00 82 1021.3
20260506215131 56 206 2.0 3.0 0.00 0.00 0.00 82 1021.5
20260506214628 56 263 4.0 5.0 0.00 0.00 0.00 82 1021.5
20260506214126 56 198 3.0 3.0 0.00 0.00 0.00 83 1021.7
20260506213624 56 297 3.0 6.0 0.00 0.00 0.00 83 1021.6
20260506213120 56 229 3.0 3.0 0.00 0.00 0.00 83 1021.6
20260506212618 56 246 5.0 6.0 0.00 0.00 0.00 83 1021.8
20260506212112 56 274 5.0 7.0 0.00 0.00 0.00 82 1021.7
20260506211608 56 270 5.0 6.0 0.00 0.00 0.00 83 1021.8
20260506211106 56 262 7.0 8.0 0.00 0.00 0.00 83 1021.8
20260506210602 56 228 3.0 3.0 0.00 0.00 0.00 83 1021.8
20260506210059 56 173 0.0 1.0 0.00 0.00 0.00 82 1021.6
20260506205555 56 216 3.0 3.0 0.00 0.00 0.00 83 1021.5
20260506205050 56 244 5.0 6.0 0.00 0.00 0.00 82 1021.6
20260506204549 56 208 3.0 3.0 0.00 0.00 0.00 82 1021.8
20260506204045 56 263 4.0 6.0 0.00 0.00 0.00 83 1021.6
20260506203544 57 244 4.0 6.0 0.00 0.00 0.00 82 1021.6
20260506203040 56 237 3.0 3.0 0.00 0.00 0.00 82 1021.7
20260506202538 56 253 4.0 6.0 0.00 0.00 0.00 82 1021.6
20260506202034 57 225 2.0 3.0 0.00 0.00 0.00 83 1021.4
20260506201532 56 223 5.0 7.0 0.00 0.00 0.00 83 1021.6
20260506201028 57 238 3.0 5.0 0.00 0.00 0.00 83 1021.5
20260506200524 57 192 2.0 2.0 0.00 0.00 0.00 83 1021.6
20260506200021 57 217 3.0 3.0 0.00 0.00 0.00 84 1021.5
20260506195518 56 221 3.0 5.0 0.00 0.00 0.00 85 1021.3
20260506195014 56 233 5.0 6.0 0.00 0.00 0.00 85 1021.5
20260506194512 56 195 4.0 5.0 0.00 0.00 0.00 86 1021.5
20260506194008 55 212 4.0 6.0 0.00 0.00 0.00 87 1021.2
20260506193506 55 218 3.0 5.0 0.00 0.00 0.00 88 1021.5
20260506193003 55 254 4.0 5.0 0.00 0.00 0.00 87 1021.3
20260506192459 55 218 0.0 0.0 0.00 0.00 0.00 88 1021.2
20260506191955 55 273 4.0 5.0 0.00 0.00 0.00 88 1021.2
20260506191452 55 197 2.0 2.0 0.00 0.00 0.00 88 1021.3
20260506190948 55 187 1.0 1.0 0.00 0.00 0.00 89 1021.3
20260506190446 54 181 1.0 2.0 0.00 0.00 0.00 89 1021.3
20260506185942 54 221 2.0 2.0 0.00 0.00 0.00 89 1021.4
20260506185439 54 185 3.0 3.0 0.00 0.00 0.00 89 1021.5
20260506184936 55 232 2.0 2.0 0.00 0.00 0.00 89 1021.3
20260506184433 55 229 2.0 2.0 0.00 0.00 0.00 88 1021.4
20260506183931 55 194 2.0 2.0 0.00 0.00 0.00 89 1021.3
20260506183426 55 235 3.0 3.0 0.00 0.00 0.00 88 1021.4
20260506182923 56 173 1.0 1.0 0.00 0.00 0.00 88 1021.3
20260506182420 56 153 1.0 1.0 0.00 0.00 0.00 88 1021.0
20260506181918 55 151 3.0 5.0 0.00 0.00 0.00 87 1021.0
20260506181416 55 163 1.0 1.0 0.00 0.00 0.00 88 1020.8
20260506180912 55 205 5.0 6.0 0.00 0.00 0.00 88 1021.0
20260506180408 55 191 5.0 6.0 0.00 0.00 0.00 88 1021.1
20260506175905 55 163 0.0 1.0 0.00 0.00 0.00 89 1021.1
20260506175402 55 197 3.0 6.0 0.00 0.00 0.00 89 1021.2
20260506174859 54 147 3.0 6.0 0.00 0.00 0.00 89 1021.1
20260506174357 54 192 6.0 7.0 0.00 0.00 0.00 90 1021.0
20260506173854 54 213 3.0 3.0 0.00 0.00 0.00 89 1021.1
20260506173350 54 182 5.0 7.0 0.00 0.00 0.00 89 1021.2
20260506172847 54 212 3.0 3.0 0.00 0.00 0.00 90 1021.3
20260506172344 54 196 2.0 2.0 0.00 0.00 0.00 91 1021.3
20260506171841 54 203 4.0 6.0 0.00 0.00 0.00 91 1021.2
20260506171338 54 193 1.0 1.0 0.00 0.00 0.00 92 1021.3
20260506170836 54 248 4.0 5.0 0.00 0.00 0.00 92 1021.3
20260506170331 54 172 2.0 3.0 0.00 0.00 0.00 92 1021.1
20260506165826 54 194 2.0 2.0 0.00 0.00 0.00 91 1021.2
20260506165323 54 213 2.0 3.0 0.00 0.00 0.00 91 1020.9
20260506164819 54 206 2.0 2.0 0.00 0.00 0.00 91 1021.0
20260506164316 54 202 3.0 5.0 0.00 0.00 0.00 91 1020.9
20260506163813 54 189 3.0 5.0 0.00 0.00 0.00 91 1020.8
20260506163308 53 175 3.0 3.0 0.00 0.00 0.00 92 1020.7
20260506162804 53 177 5.0 6.0 0.00 0.00 0.00 92 1020.7
20260506162306 53 241 3.0 3.0 0.00 0.00 0.00 93 1020.6
20260506161759 53 193 1.0 1.0 0.00 0.00 0.00 94 1020.6
20260506161256 53 248 3.0 5.0 0.00 0.00 0.00 94 1020.6
20260506160754 53 193 1.0 1.0 0.00 0.00 0.00 95 1020.8
20260506160250 53 187 2.0 2.0 0.00 0.00 0.00 95 1021.0
20260506155749 53 191 1.0 2.0 0.00 0.00 0.00 95 1020.9
20260506155245 53 195 3.0 5.0 0.00 0.00 0.00 95 1021.1
20260506153358 53 212 3.0 3.0 0.00 0.00 0.00 94 1020.7
20260506152855 53 177 5.0 6.0 0.00 0.00 0.00 95 1020.5
20260506152352 52 191 1.0 2.0 0.00 0.00 0.00 95 1020.5
20260506151851 53 170 1.0 1.0 0.00 0.00 0.00 96 1020.8
20260506151347 52 177 2.0 2.0 0.00 0.00 0.00 96 1020.6
20260506150845 52 169 1.0 1.0 0.00 0.00 0.00 96 1020.7
20260506150341 52 168 1.0 1.0 0.00 0.00 0.00 96 1020.6
20260506145838 52 166 2.0 3.0 0.00 0.00 0.00 96 1020.6
20260506145334 52 189 3.0 5.0 0.00 0.00 0.00 96 1020.8
20260506144832 52 170 1.0 1.0 0.00 0.00 0.00 96 1020.9
20260506144328 52 171 1.0 1.0 0.00 0.00 0.00 96 1020.4
20260506143827 52 188 1.0 1.0 0.00 0.00 0.00 96 1020.4
20260506143323 52 145 3.0 3.0 0.00 0.00 0.00 96 1020.4
20260506142822 52 164 3.0 3.0 0.00 0.00 0.00 96 1020.4
20260506142319 52 177 3.0 3.0 0.00 0.00 0.00 96 1020.4
20260506141817 52 167 2.0 2.0 0.00 0.00 0.00 95 1020.5
20260506141315 52 170 1.0 1.0 0.00 0.00 0.00 95 1020.4
20260506140813 52 169 1.0 2.0 0.00 0.00 0.00 95 1020.6
20260506140309 53 189 3.0 3.0 0.00 0.00 0.00 95 1020.5
20260506135807 53 180 1.0 1.0 0.00 0.00 0.00 95 1020.5
20260506135305 52 190 1.0 2.0 0.00 0.00 0.00 95 1020.3
20260506134759 52 200 2.0 3.0 0.00 0.00 0.00 95 1020.6
20260506134256 52 211 4.0 5.0 0.00 0.00 0.00 95 1020.7
20260506133753 52 182 3.0 3.0 0.00 0.00 0.00 95 1020.5
20260506133250 52 152 4.0 5.0 0.00 0.00 0.00 95 1020.5
20260506132746 53 191 3.0 3.0 0.00 0.00 0.00 96 1020.3
20260506132244 52 219 3.0 3.0 0.00 0.00 0.00 96 1020.3
20260506131742 52 201 2.0 3.0 0.00 0.00 0.00 97 1019.9
20260506131237 52 195 2.0 2.0 0.00 0.00 0.00 97 1020.2
20260506130734 52 153 1.0 1.0 0.00 0.00 0.00 98 1020.1
20260506130231 52 143 1.0 5.0 0.00 0.00 0.00 98 1020.0
20260506125730 52 179 3.0 3.0 0.00 0.00 0.00 99 1019.9
20260506125227 52 155 1.0 1.0 0.00 0.00 0.00 99 1019.8
20260506124725 52 190 2.0 2.0 0.00 0.00 0.00 99 1019.8
20260506124223 52 193 1.0 2.0 0.00 0.00 0.00 99 1020.0
20260506123720 52 162 1.0 2.0 0.00 0.00 0.00 99 1019.6
20260506123219 52 155 1.0 2.0 0.00 0.00 0.00 99 1019.8
20260506122715 52 153 0.0 1.0 0.00 0.00 0.00 99 1019.7
20260506122212 52 173 2.0 2.0 0.00 0.00 0.00 99 1019.8
20260506121710 52 169 1.0 1.0 0.00 0.00 0.00 99 1019.8
20260506121206 52 159 1.0 1.0 0.00 0.00 0.00 99 1019.9
20260506120704 52 144 0.0 0.0 0.00 0.00 0.00 99 1019.7
20260506120202 52 144 0.0 1.0 0.00 0.00 0.00 99 1019.6
20260506115700 52 134 1.0 1.0 0.00 0.00 0.00 99 1019.6
20260506115158 52 154 1.0 2.0 0.00 0.00 0.00 99 1019.6
20260506114654 52 125 3.0 3.0 0.00 0.00 0.00 98 1019.4
20260506114152 52 132 2.0 2.0 0.00 0.00 0.00 98 1019.8
20260506113651 52 133 1.0 2.0 0.00 0.00 0.00 97 1019.5
20260506113148 52 153 1.0 1.0 0.00 0.00 0.00 97 1019.6
20260506112643 53 179 1.0 2.0 0.00 0.00 0.00 96 1019.7
20260506112142 53 188 2.0 2.0 0.00 0.00 0.00 96 1019.5
20260506111639 53 266 3.0 5.0 0.00 0.00 0.00 96 1019.5
20260506111136 53 149 2.0 2.0 0.00 0.00 0.00 95 1019.5
20260506110634 53 207 1.0 1.0 0.00 0.00 0.00 95 1019.3
20260506110131 53 191 1.0 2.0 0.00 0.00 0.00 94 1019.6
20260506105627 53 209 2.0 3.0 0.00 0.00 0.00 94 1019.5
20260506105124 53 219 1.0 2.0 0.00 0.00 0.00 94 1019.4
20260506104623 53 234 1.0 1.0 0.00 0.00 0.00 94 1019.5
20260506104120 53 246 3.0 3.0 0.00 0.00 0.00 94 1019.2
20260506103617 53 213 2.0 2.0 0.00 0.00 0.00 94 1019.2
20260506103114 53 217 2.0 3.0 0.00 0.00 0.00 94 1019.1
20260506102612 53 195 1.0 2.0 0.00 0.00 0.00 94 1019.2
20260506102109 53 193 1.0 1.0 0.00 0.00 0.00 94 1019.0
20260506101606 53 167 0.0 1.0 0.00 0.00 0.00 94 1018.9
20260506101103 53 183 1.0 1.0 0.00 0.00 0.00 94 1018.9
20260506100601 53 184 1.0 1.0 0.00 0.00 0.00 94 1018.9
20260506100059 53 217 2.0 3.0 0.00 0.00 0.00 94 1019.0
20260506095558 53 184 0.0 1.0 0.00 0.00 0.00 94 1018.8
20260506095054 53 215 2.0 2.0 0.00 0.00 0.00 94 1018.7
20260506094551 53 202 1.0 1.0 0.00 0.00 0.00 94 1018.7
20260506094049 53 210 0.0 1.0 0.00 0.00 0.00 94 1018.7
20260506093547 53 210 1.0 2.0 0.00 0.00 0.00 94 1018.8
20260506093044 53 227 1.0 2.0 0.00 0.00 0.00 94 1018.7
20260506092542 53 227 2.0 2.0 0.00 0.00 0.00 94 1018.4
20260506092038 53 227 0.0 0.0 0.00 0.00 0.00 94 1018.7
20260506091537 53 246 1.0 1.0 0.00 0.00 0.00 94 1018.8
20260506091034 53 238 3.0 3.0 0.00 0.00 0.00 94 1018.6
20260506090532 53 239 2.0 3.0 0.00 0.00 0.00 94 1018.6
20260506090028 53 210 2.0 3.0 0.00 0.00 0.00 94 1018.4
20260506085525 53 221 2.0 2.0 0.00 0.00 0.00 94 1018.6